• In Netherlands
  • List of Countries
  • For 7 days
  • Water Temperature
  • Satellite Maps
  • Weather Map
  • Weather Widgets
  • user-avatar
    Login

    Hourly Weather Mazari Sharif

    Today, 25 September, Monday

    Time Temperature Precipitation Wind Pressure Humidity
    00:00 +17°C° 0 mm 3 mps 657 mmHg 19%
    01:00 +17°C° 0 mm 3 mps 657 mmHg 19%
    02:00 +17°C° 0 mm 3 mps 657 mmHg 20%
    03:00 +16°C° 0 mm 3 mps 657 mmHg 20%
    04:00 +16°C° 0 mm 3 mps 657 mmHg 20%
    05:00 +17°C° 0 mm 3 mps 657 mmHg 19%
    06:00 +18°C° 0 mm 3 mps 658 mmHg 18%
    07:00 +19°C° 0 mm 3 mps 658 mmHg 18%
    08:00 +20°C° 0 mm 3 mps 659 mmHg 16%
    09:00 +22°C° 0 mm 3 mps 659 mmHg 15%
    10:00 +24°C° 0 mm 3 mps 659 mmHg 13%
    11:00 +25°C° 0 mm 3 mps 659 mmHg 13%
    12:00 +26°C° 0 mm 4 mps 659 mmHg 12%
    13:00 +26°C° 0 mm 4 mps 659 mmHg 12%
    14:00 +26°C° 0 mm 4 mps 659 mmHg 12%
    15:00 +26°C° 0 mm 4 mps 659 mmHg 12%
    16:00 +25°C° 0 mm 4 mps 658 mmHg 12%
    17:00 +22°C° 0 mm 3 mps 658 mmHg 14%
    18:00 +21°C° 0 mm 2 mps 658 mmHg 15%
    19:00 +20°C° 0 mm 1 mps 658 mmHg 17%
    20:00 +18°C° 0 mm 2 mps 658 mmHg 18%
    21:00 +18°C° 0 mm 2 mps 658 mmHg 18%
    22:00 +17°C° 0 mm 2 mps 658 mmHg 19%
    23:00 +17°C° 0 mm 2 mps 657 mmHg 19%

    Tomorrow, 26 September, Tuesday

    Time Temperature Precipitation Wind Pressure Humidity
    00:00 +16°C° 0 mm 2 mps 657 mmHg 20%
    01:00 +16°C° 0 mm 2 mps 657 mmHg 20%
    02:00 +15°C° 0 mm 1 mps 657 mmHg 21%
    03:00 +15°C° 0 mm 1 mps 657 mmHg 22%
    04:00 +14°C° 0 mm 1 mps 656 mmHg 23%
    05:00 +16°C° 0 mm 1 mps 657 mmHg 21%
    06:00 +18°C° 0 mm 1 mps 658 mmHg 19%
    07:00 +20°C° 0 mm 1 mps 658 mmHg 17%
    08:00 +21°C° 0 mm 1 mps 658 mmHg 15%
    09:00 +23°C° 0 mm 1 mps 659 mmHg 14%
    10:00 +24°C° 0 mm 1 mps 659 mmHg 13%
    11:00 +25°C° 0 mm 2 mps 659 mmHg 12%
    12:00 +25°C° 0 mm 2 mps 658 mmHg 12%
    13:00 +26°C° 0 mm 3 mps 658 mmHg 12%
    14:00 +26°C° 0 mm 3 mps 658 mmHg 12%
    15:00 +26°C° 0 mm 3 mps 658 mmHg 12%
    16:00 +26°C° 0 mm 3 mps 657 mmHg 12%
    17:00 +24°C° 0 mm 2 mps 657 mmHg 14%
    18:00 +22°C° 0 mm 1 mps 657 mmHg 16%
    19:00 +20°C° 0 mm 1 mps 657 mmHg 17%
    20:00 +19°C° 0 mm 1 mps 656 mmHg 18%
    21:00 +19°C° 0 mm 1 mps 656 mmHg 19%
    22:00 +18°C° 0 mm 1 mps 656 mmHg 19%
    23:00 +18°C° 0 mm 1 mps 656 mmHg 20%

    Day after tomorrow, 27 September, Wednesday

    Time Temperature Precipitation Wind Pressure Humidity
    00:00 +16°C° 0 mm 1 mps 656 mmHg 21%
    01:00 +16°C° 0 mm 1 mps 656 mmHg 21%
    02:00 +16°C° 0 mm 1 mps 656 mmHg 22%
    03:00 +15°C° 0 mm 1 mps 656 mmHg 22%
    04:00 +15°C° 0 mm 1 mps 656 mmHg 23%
    05:00 +16°C° 0 mm 1 mps 657 mmHg 21%
    06:00 +19°C° 0 mm 1 mps 658 mmHg 19%
    07:00 +21°C° 0 mm 1 mps 659 mmHg 17%
    08:00 +22°C° 0 mm 1 mps 659 mmHg 16%
    09:00 +23°C° 0 mm 1 mps 660 mmHg 15%
    10:00 +25°C° 0 mm 1 mps 660 mmHg 14%
    11:00 +25°C° 0 mm 2 mps 660 mmHg 13%
    12:00 +26°C° 0 mm 2 mps 660 mmHg 13%
    13:00 +27°C° 0 mm 3 mps 659 mmHg 13%
    14:00 +26°C° 0 mm 3 mps 659 mmHg 13%
    15:00 +26°C° 0 mm 3 mps 659 mmHg 13%
    16:00 +26°C° 0 mm 3 mps 659 mmHg 13%
    17:00 +24°C° 0 mm 2 mps 659 mmHg 15%
    18:00 +21°C° 0 mm 2 mps 658 mmHg 17%
    19:00 +21°C° 0 mm 1 mps 658 mmHg 19%
    20:00 +20°C° 0 mm 1 mps 658 mmHg 20%
    21:00 +19°C° 0 mm 1 mps 657 mmHg 20%
    22:00 +19°C° 0 mm 1 mps 657 mmHg 21%
    23:00 +18°C° 0 mm 1 mps 657 mmHg 22%

    28 September, Thursday

    Time Temperature Precipitation Wind Pressure Humidity
    00:00 +16°C° 0 mm 1 mps 656 mmHg 22%
    01:00 +15°C° 0 mm 0 mps 656 mmHg 23%
    02:00 +16°C° 0 mm 1 mps 656 mmHg 23%
    03:00 +15°C° 0 mm 1 mps 655 mmHg 24%
    04:00 +15°C° 0 mm 1 mps 655 mmHg 24%
    05:00 +18°C° 0 mm 1 mps 656 mmHg 22%
    06:00 +19°C° 0 mm 1 mps 657 mmHg 19%
    07:00 +21°C° 0 mm 1 mps 657 mmHg 17%
    08:00 +22°C° 0 mm 1 mps 658 mmHg 15%
    09:00 +24°C° 0 mm 2 mps 658 mmHg 13%
    10:00 +26°C° 0 mm 2 mps 658 mmHg 11%
    11:00 +26°C° 0 mm 2 mps 658 mmHg 11%
    12:00 +27°C° 0 mm 3 mps 658 mmHg 10%
    13:00 +28°C° 0 mm 3 mps 658 mmHg 10%
    14:00 +27°C° 0 mm 3 mps 658 mmHg 10%
    15:00 +27°C° 0 mm 3 mps 658 mmHg 10%
    16:00 +27°C° 0 mm 3 mps 657 mmHg 11%
    17:00 +25°C° 0 mm 2 mps 657 mmHg 13%
    18:00 +23°C° 0 mm 2 mps 657 mmHg 15%
    19:00 +21°C° 0 mm 1 mps 657 mmHg 17%
    20:00 +21°C° 0 mm 1 mps 657 mmHg 17%
    21:00 +19°C° 0 mm 2 mps 657 mmHg 18%
    22:00 +19°C° 0 mm 2 mps 657 mmHg 19%
    23:00 +18°C° 0 mm 2 mps 657 mmHg 20%

    29 September, Friday

    Time Temperature Precipitation Wind Pressure Humidity
    00:00 +18°C° 0 mm 2 mps 657 mmHg 21%
    01:00 +17°C° 0 mm 2 mps 657 mmHg 22%
    02:00 +16°C° 0 mm 3 mps 657 mmHg 24%
    03:00 +16°C° 0 mm 3 mps 657 mmHg 27%
    04:00 +14°C° 0 mm 3 mps 657 mmHg 29%
    05:00 +14°C° 0 mm 3 mps 658 mmHg 30%
    06:00 +16°C° 0 mm 3 mps 658 mmHg 30%
    07:00 +16°C° 0 mm 3 mps 659 mmHg 30%
    08:00 +18°C° 0 mm 4 mps 659 mmHg 29%
    09:00 +19°C° 0 mm 4 mps 659 mmHg 28%
    10:00 +20°C° 0 mm 4 mps 660 mmHg 26%
    11:00 +21°C° 0 mm 4 mps 659 mmHg 26%
    12:00 +21°C° 0 mm 5 mps 659 mmHg 25%
    13:00 +22°C° 0 mm 5 mps 659 mmHg 24%
    14:00 +21°C° 0 mm 5 mps 659 mmHg 25%
    15:00 +21°C° 0 mm 5 mps 659 mmHg 25%
    16:00 +20°C° 0 mm 5 mps 659 mmHg 25%
    17:00 +19°C° 0 mm 4 mps 659 mmHg 27%
    18:00 +18°C° 0 mm 3 mps 659 mmHg 29%
    19:00 +16°C° 0 mm 2 mps 659 mmHg 30%
    20:00 +16°C° 0 mm 2 mps 659 mmHg 31%
    21:00 +15°C° 0 mm 2 mps 659 mmHg 32%
    22:00 +14°C° 0 mm 2 mps 659 mmHg 33%
    23:00 +14°C° 0 mm 1 mps 659 mmHg 34%

    30 September, Saturday

    Time Temperature Precipitation Wind Pressure Humidity
    00:00 +13°C° 0 mm 1 mps 658 mmHg 34%
    01:00 +13°C° 0 mm 1 mps 658 mmHg 35%
    02:00 +12°C° 0 mm 1 mps 658 mmHg 36%
    03:00 +12°C° 0 mm 1 mps 658 mmHg 37%
    04:00 +11°C° 0 mm 1 mps 658 mmHg 38%
    05:00 +13°C° 0 mm 1 mps 658 mmHg 35%
    06:00 +14°C° 0 mm 1 mps 659 mmHg 31%
    07:00 +15°C° 0 mm 1 mps 660 mmHg 28%
    08:00 +18°C° 0 mm 1 mps 660 mmHg 25%
    09:00 +18°C° 0 mm 2 mps 660 mmHg 23%
    10:00 +20°C° 0 mm 2 mps 660 mmHg 21%
    11:00 +21°C° 0 mm 2 mps 660 mmHg 19%
    12:00 +22°C° 0 mm 3 mps 660 mmHg 18%
    13:00 +24°C° 0 mm 3 mps 660 mmHg 17%
    14:00 +24°C° 0 mm 3 mps 659 mmHg 17%
    15:00 +24°C° 0 mm 3 mps 659 mmHg 17%
    16:00 +23°C° 0 mm 2 mps 659 mmHg 17%
    17:00 +21°C° 0 mm 2 mps 659 mmHg 20%
    18:00 +20°C° 0 mm 1 mps 659 mmHg 23%
    19:00 +16°C° 0 mm 0 mps 658 mmHg 26%
    20:00 +15°C° 0 mm 0 mps 658 mmHg 27%
    21:00 +15°C° 0 mm 0 mps 658 mmHg 28%
    22:00 +14°C° 0 mm 0 mps 658 mmHg 29%
    23:00 +15°C° 0 mm 1 mps 657 mmHg 29%
    Show more